Weather History for Mount Pleasant, TX

Change the Weather History Date:

Saturday, November 5, 2011

  Actual Average (KGGG) Record (KGGG)
Temperature  
Mean Temperature 54 °F 60 °F  
Max Temperature 68 °F 72 °F 92 °F (1937)
Min Temperature 41 °F 49 °F 22 °F (1991)
Degree Days  
Heating Degree Days 10 6  
Month to date heating degree days 29  
Since 1 July heating degree days 118  
Cooling Degree Days 0 1  
Month to date cooling degree days 8  
Year to date cooling degree days 2403  
Growing Degree Days 4 (Base 50)    
Moisture  
Dew Point 41 °F    
Average Humidity 69    
Maximum Humidity 100    
Minimum Humidity 33    
Precipitation  
Precipitation 0.00 in 0.14 in 2.00 in (1932)
Month to date precipitation 0.69  
Year to date precipitation 39.26  
Snow  
Snow 0.00 in - - ()
Month to date snowfall  
Since 1 July snowfall  
Since 1 September snowfall  
Snow Depth -    
Sea Level Pressure  
Sea Level Pressure 30.09 in    
Wind  
Wind Speed 8 mph (ESE)    
Max Wind Speed 17 mph    
Max Gust Speed 22 mph    
Visibility 8 miles    
Events      
T = Trace of Precipitation, MM = Missing Value Source: NWS Daily Summary

Daily Weather History Graph

Daily Weather History Graph

Search for Another Location

Airport:

Trip Planner

Search our weather history database for the weather conditions in past years. The results will help you decide how hot, cold, wet, or windy it might be!

Date:

Astronomy

Nov. 05, 2011 Rise Set
Actual Time 7:41 AM CDT 6:25 PM CDT
Civil Twilight 7:15 AM CDT 6:50 PM CDT
Nautical Twilight 6:46 AM CDT 7:20 PM CDT
Astronomical Twilight 6:17 AM CDT 7:49 PM CDT
Moon 3:31 PM CDT (11/5) 3:05 AM CDT (11/5)
Length of Visible Light 11h 35m
Length of Day
10h 43m
Waxing Gibbous, 78% of the Moon is Illuminated
Nov 5
Waxing Gibbous
Nov 10
Full
Nov 18
Last Quarter
Nov 25
New
Dec 2
First Quarter

Hourly Weather History & Observations

Time (CDT) Temp. Windchill Dew Point Humidity Pressure Visibility Wind Dir Wind Speed Gust Speed Precip Events Conditions
12:15 AM 46.4 °F 42.9 °F 41.0 °F 81% 30.17 in 10.0 mi East 6.9 mph - N/A   Clear
12:35 AM 46.4 °F 42.4 °F 41.0 °F 81% 30.16 in 10.0 mi East 8.1 mph - N/A   Clear
12:55 AM 46.4 °F 42.9 °F 41.0 °F 81% 30.16 in 10.0 mi East 6.9 mph - N/A   Clear
1:15 AM 46.4 °F 43.5 °F 41.0 °F 81% 30.16 in 10.0 mi East 5.8 mph - N/A   Clear
1:35 AM 46.4 °F 42.9 °F 41.0 °F 81% 30.15 in 10.0 mi East 6.9 mph - N/A   Clear
1:55 AM 46.4 °F 42.9 °F 41.0 °F 81% 30.15 in 10.0 mi ESE 6.9 mph - N/A   Clear
2:15 AM 44.6 °F 41.4 °F 41.0 °F 87% 30.15 in 10.0 mi East 5.8 mph - N/A   Clear
2:35 AM 44.6 °F 41.4 °F 41.0 °F 87% 30.15 in 10.0 mi East 5.8 mph - N/A   Clear
2:55 AM 44.6 °F 39.7 °F 41.0 °F 87% 30.15 in 10.0 mi East 9.2 mph - N/A   Clear
3:15 AM 44.6 °F 40.2 °F 41.0 °F 87% 30.15 in 10.0 mi East 8.1 mph - N/A   Clear
3:35 AM 44.6 °F 40.7 °F 41.0 °F 87% 30.14 in 10.0 mi ESE 6.9 mph - N/A   Clear
3:55 AM 44.6 °F 41.4 °F 41.0 °F 87% 30.14 in 10.0 mi ESE 5.8 mph - N/A   Clear
4:15 AM 44.6 °F 41.4 °F 41.0 °F 87% 30.14 in 10.0 mi East 5.8 mph - N/A   Clear
4:35 AM 42.8 °F 39.3 °F 41.0 °F 93% 30.14 in 10.0 mi East 5.8 mph - N/A   Clear
4:55 AM 42.8 °F 39.3 °F 41.0 °F 93% 30.14 in 10.0 mi ESE 5.8 mph - N/A   Clear
5:35 AM 41.0 °F 39.0 °F 39.2 °F 93% 30.14 in 7.0 mi ENE 3.5 mph - N/A   Clear
5:55 AM 41.0 °F 39.0 °F 39.2 °F 93% 30.14 in 4.0 mi ENE 3.5 mph - N/A   Clear
6:15 AM 41.0 °F - 39.2 °F 93% 30.15 in 4.0 mi Calm Calm - N/A   Clear
6:35 AM 41.0 °F - 39.2 °F 93% 30.15 in 3.0 mi Calm Calm - N/A   Unknown
6:55 AM 41.0 °F 39.0 °F 41.0 °F 100% 30.15 in 3.0 mi East 3.5 mph - N/A   Unknown
7:15 AM 41.0 °F - 39.2 °F 93% 30.15 in 3.0 mi Calm Calm - N/A   Unknown
7:35 AM 41.0 °F - 39.2 °F 93% 30.15 in 0.5 mi Calm Calm - N/A   Unknown
7:55 AM 41.0 °F - 39.2 °F 93% 30.15 in 0.8 mi Calm Calm - N/A   Unknown
8:15 AM 41.0 °F 38.0 °F 41.0 °F 100% 30.15 in 2.5 mi ESE 4.6 mph - N/A   Unknown
8:35 AM 42.8 °F 39.3 °F 41.0 °F 93% 30.15 in 3.0 mi ESE 5.8 mph - N/A   Unknown
9:15 AM 44.6 °F 40.7 °F 42.8 °F 93% 30.16 in 4.0 mi ESE 6.9 mph - N/A   Scattered Clouds
9:35 AM 44.6 °F 38.8 °F 44.6 °F 100% 30.16 in 5.0 mi SE 11.5 mph - N/A   Mostly Cloudy
9:55 AM 46.4 °F 41.1 °F 44.6 °F 93% 30.16 in 5.0 mi SE 11.5 mph - N/A   Mostly Cloudy
10:15 AM 48.2 °F - 46.4 °F 93% 30.15 in 5.0 mi SE 9.2 mph - N/A   Mostly Cloudy
10:35 AM 51.8 °F - 46.4 °F 82% 30.15 in 10.0 mi ESE 11.5 mph - N/A   Scattered Clouds
10:55 AM 53.6 °F - 44.6 °F 72% 30.14 in 10.0 mi ESE 16.1 mph - N/A   Clear
11:15 AM 55.4 °F - 44.6 °F 67% 30.14 in 10.0 mi ESE 8.1 mph - N/A   Clear
11:35 AM 55.4 °F - 44.6 °F 67% 30.13 in 10.0 mi SE 11.5 mph - N/A   Clear
11:55 AM 59.0 °F - 44.6 °F 59% 30.11 in 10.0 mi SE 11.5 mph 16.1 mph N/A   Clear
12:15 PM 59.0 °F - 42.8 °F 55% 30.10 in 10.0 mi SE 13.8 mph - N/A   Clear
12:35 PM 60.8 °F - 42.8 °F 52% 30.10 in 10.0 mi ESE 9.2 mph - N/A   Clear
12:55 PM 60.8 °F - 44.6 °F 55% 30.10 in 10.0 mi East 8.1 mph - N/A   Clear
1:15 PM 62.6 °F - 42.8 °F 48% 30.07 in 10.0 mi ESE 11.5 mph 17.3 mph N/A   Clear
1:35 PM 62.6 °F - 42.8 °F 48% 30.06 in 10.0 mi SE 9.2 mph - N/A   Clear
1:55 PM 64.4 °F - 41.0 °F 42% 30.04 in 10.0 mi SSE 12.7 mph 16.1 mph N/A   Clear
2:15 PM 64.4 °F - 42.8 °F 45% 30.02 in 10.0 mi ESE 11.5 mph 20.7 mph N/A   Clear
2:35 PM 66.2 °F - 41.0 °F 40% 30.01 in 10.0 mi SE 10.4 mph - N/A   Clear
2:55 PM 66.2 °F - 39.2 °F 37% 30.01 in 10.0 mi SE 13.8 mph 21.9 mph N/A   Clear
3:15 PM 66.2 °F - 39.2 °F 37% 29.99 in 10.0 mi SE 11.5 mph - N/A   Clear
3:35 PM 66.2 °F - 41.0 °F 40% 29.97 in 10.0 mi East 15.0 mph - N/A   Clear
3:55 PM 68.0 °F - 37.4 °F 33% 29.96 in 10.0 mi ESE 15.0 mph 21.9 mph N/A   Clear
4:15 PM 68.0 °F - 37.4 °F 33% 29.97 in 10.0 mi SE 10.4 mph 21.9 mph N/A   Clear
4:35 PM 68.0 °F - 37.4 °F 33% 29.96 in 10.0 mi ESE 17.3 mph - N/A   Clear
4:55 PM 66.2 °F - 37.4 °F 35% 29.95 in 10.0 mi ESE 12.7 mph 16.1 mph N/A   Clear
5:15 PM 66.2 °F - 39.2 °F 37% 29.95 in 10.0 mi ESE 10.4 mph - N/A   Clear
5:35 PM 64.4 °F - 39.2 °F 40% 29.95 in 10.0 mi SE 10.4 mph - N/A   Clear
5:55 PM 62.6 °F - 39.2 °F 42% 29.96 in 10.0 mi SE 10.4 mph - N/A   Clear
6:15 PM 62.6 °F - 41.0 °F 45% 29.94 in 10.0 mi ESE 9.2 mph - N/A   Clear
6:35 PM 62.6 °F - 41.0 °F 45% 29.95 in 10.0 mi SE 10.4 mph - N/A   Clear
6:55 PM 60.8 °F - 41.0 °F 48% 29.96 in 10.0 mi ESE 9.2 mph - N/A   Clear
7:15 PM 60.8 °F - 41.0 °F 48% 29.97 in 10.0 mi SE 8.1 mph - N/A   Clear
7:35 PM 60.8 °F - 41.0 °F 48% 29.97 in 10.0 mi SE 6.9 mph - N/A   Clear
7:55 PM 60.8 °F - 41.0 °F 48% 29.98 in 10.0 mi SE 9.2 mph - N/A   Clear
8:15 PM 60.8 °F - 41.0 °F 48% 29.99 in 10.0 mi SE 10.4 mph - N/A   Clear
8:35 PM 59.0 °F - 41.0 °F 51% 29.99 in 10.0 mi SE 9.2 mph - N/A   Clear
8:55 PM 59.0 °F - 42.8 °F 55% 29.99 in 10.0 mi SE 9.2 mph - N/A   Clear
9:15 PM 59.0 °F - 42.8 °F 55% 29.99 in 10.0 mi ESE 9.2 mph - N/A   Clear
9:35 PM 59.0 °F - 42.8 °F 55% 29.99 in 10.0 mi ESE 9.2 mph - N/A   Clear
9:55 PM 59.0 °F - 42.8 °F 55% 29.99 in 10.0 mi SE 8.1 mph - N/A   Clear
10:15 PM 59.0 °F - 42.8 °F 55% 29.99 in 10.0 mi ESE 8.1 mph - N/A   Clear
10:35 PM 59.0 °F - 42.8 °F 55% 29.99 in 10.0 mi ESE 8.1 mph - N/A   Clear
10:55 PM 59.0 °F - 42.8 °F 55% 29.99 in 10.0 mi ESE 10.4 mph - N/A   Clear
11:15 PM 59.0 °F - 42.8 °F 55% 30.00 in 10.0 mi SE 10.4 mph - N/A   Mostly Cloudy
11:35 PM 59.0 °F - 42.8 °F 55% 30.00 in 10.0 mi SE 8.1 mph - N/A   Overcast
11:55 PM 59.0 °F - 44.6 °F 59% 29.99 in 10.0 mi ESE 9.2 mph - N/A   Overcast